Year,Month,Day,Hour,Minute,Value (Times are PST for temperature in C)
2017,03,26,00,00,6.50
2017,03,26,00,01,6.50
2017,03,26,00,02,6.50
2017,03,26,00,03,6.50
2017,03,26,00,04,6.60
2017,03,26,00,05,6.60
2017,03,26,00,06,6.60
2017,03,26,00,07,6.60
2017,03,26,00,08,6.60
2017,03,26,00,09,6.60
2017,03,26,00,10,6.60
2017,03,26,00,11,6.60
2017,03,26,00,12,6.60
2017,03,26,00,13,6.60
2017,03,26,00,14,6.60
2017,03,26,00,15,6.60
2017,03,26,00,16,6.60
2017,03,26,00,17,6.60
2017,03,26,00,18,6.70
2017,03,26,00,19,6.70
2017,03,26,00,20,6.70
2017,03,26,00,21,6.70
2017,03,26,00,22,6.70
2017,03,26,00,23,6.70
2017,03,26,00,24,6.70
2017,03,26,00,25,6.80
2017,03,26,00,26,6.80
2017,03,26,00,27,6.80
2017,03,26,00,28,6.80
2017,03,26,00,29,6.80
2017,03,26,00,30,6.80
2017,03,26,00,31,6.80
2017,03,26,00,32,6.80
2017,03,26,00,33,6.80
2017,03,26,00,34,6.80
2017,03,26,00,35,6.80
2017,03,26,00,36,6.80
2017,03,26,00,37,6.80
2017,03,26,00,38,6.80
2017,03,26,00,39,6.80
2017,03,26,00,40,6.80
2017,03,26,00,41,6.80
2017,03,26,00,42,6.80
2017,03,26,00,43,6.80
2017,03,26,00,44,6.80
2017,03,26,00,45,6.80
2017,03,26,00,46,6.80
2017,03,26,00,47,6.80
2017,03,26,00,48,6.80
2017,03,26,00,49,6.80
2017,03,26,00,50,6.80
2017,03,26,00,51,6.80
2017,03,26,00,52,6.70
2017,03,26,00,53,6.70
2017,03,26,00,54,6.70
2017,03,26,00,55,6.80
2017,03,26,00,56,6.80
2017,03,26,00,57,6.80
2017,03,26,00,58,6.80
2017,03,26,00,59,6.80
2017,03,26,01,00,6.80
2017,03,26,01,01,6.80
2017,03,26,01,02,6.80
2017,03,26,01,03,6.80
2017,03,26,01,04,6.80
2017,03,26,01,05,6.80
2017,03,26,01,06,6.80
2017,03,26,01,07,6.80
2017,03,26,01,08,6.80
2017,03,26,01,09,6.80
2017,03,26,01,10,6.80
2017,03,26,01,11,6.70
2017,03,26,01,12,6.70
2017,03,26,01,13,6.70
2017,03,26,01,14,6.70
2017,03,26,01,15,6.70
2017,03,26,01,16,6.70
2017,03,26,01,17,6.70
2017,03,26,01,18,6.70
2017,03,26,01,19,6.70
2017,03,26,01,20,6.70
2017,03,26,01,21,6.70
2017,03,26,01,22,6.70
2017,03,26,01,23,6.70
2017,03,26,01,24,6.70
2017,03,26,01,25,6.70
2017,03,26,01,26,6.70
2017,03,26,01,27,6.70
2017,03,26,01,28,6.70
2017,03,26,01,29,6.70
2017,03,26,01,30,6.70
2017,03,26,01,31,6.70
2017,03,26,01,32,6.70
2017,03,26,01,33,6.80
2017,03,26,01,34,6.80
2017,03,26,01,35,6.80
2017,03,26,01,36,6.80
2017,03,26,01,37,6.80
2017,03,26,01,38,6.80
2017,03,26,01,39,6.80
2017,03,26,01,40,6.70
2017,03,26,01,41,6.70
2017,03,26,01,42,6.70
2017,03,26,01,43,6.70
2017,03,26,01,44,6.70
2017,03,26,01,45,6.70
2017,03,26,01,46,6.70
2017,03,26,01,47,6.70
2017,03,26,01,48,6.70
2017,03,26,01,49,6.70
2017,03,26,01,50,6.70
2017,03,26,01,51,6.70
2017,03,26,01,52,6.70
2017,03,26,01,53,6.70
2017,03,26,01,54,6.70
2017,03,26,01,55,6.80
2017,03,26,01,56,6.80
2017,03,26,01,57,6.80
2017,03,26,01,58,6.80
2017,03,26,01,59,6.80
2017,03,26,02,00,6.80
2017,03,26,02,01,6.80
2017,03,26,02,02,6.80
2017,03,26,02,03,6.70
2017,03,26,02,04,6.70
2017,03,26,02,05,6.70
2017,03,26,02,06,6.70
2017,03,26,02,07,6.70
2017,03,26,02,08,6.70
2017,03,26,02,09,6.70
2017,03,26,02,10,6.70
2017,03,26,02,11,6.60
2017,03,26,02,12,6.60
2017,03,26,02,13,6.60
2017,03,26,02,14,6.60
2017,03,26,02,15,6.60
2017,03,26,02,16,6.60
2017,03,26,02,17,6.60
2017,03,26,02,18,6.60
2017,03,26,02,19,6.60
2017,03,26,02,20,6.50
2017,03,26,02,21,6.50
2017,03,26,02,22,6.50
2017,03,26,02,23,6.50
2017,03,26,02,24,6.50
2017,03,26,02,25,6.50
2017,03,26,02,26,6.50
2017,03,26,02,27,6.50
2017,03,26,02,28,6.50
2017,03,26,02,29,6.50
2017,03,26,02,30,6.50
2017,03,26,02,31,6.40
2017,03,26,02,32,6.40
2017,03,26,02,33,6.40
2017,03,26,02,34,6.40
2017,03,26,02,35,6.40
2017,03,26,02,36,6.40
2017,03,26,02,37,6.40
2017,03,26,02,38,6.40
2017,03,26,02,39,6.40
2017,03,26,02,40,6.40
2017,03,26,02,41,6.40
2017,03,26,02,42,6.40
2017,03,26,02,43,6.40
2017,03,26,02,44,6.40
2017,03,26,02,45,6.40
2017,03,26,02,46,6.40
2017,03,26,02,47,6.40
2017,03,26,02,48,6.40
2017,03,26,02,49,6.40
2017,03,26,02,50,6.40
2017,03,26,02,51,6.40
2017,03,26,02,52,6.40
2017,03,26,02,53,6.40
2017,03,26,02,54,6.40
2017,03,26,02,55,6.40
2017,03,26,02,56,6.50
2017,03,26,02,57,6.40
2017,03,26,02,58,6.50
2017,03,26,02,59,6.50
2017,03,26,03,00,6.50
2017,03,26,03,01,6.50
2017,03,26,03,02,6.60
2017,03,26,03,03,6.60
2017,03,26,03,04,6.60
2017,03,26,03,05,6.70
2017,03,26,03,06,6.70
2017,03,26,03,07,6.70
2017,03,26,03,08,6.80
2017,03,26,03,09,6.80
2017,03,26,03,10,6.80
2017,03,26,03,11,6.80
2017,03,26,03,12,6.80
2017,03,26,03,13,6.80
2017,03,26,03,14,6.80
2017,03,26,03,15,6.80
2017,03,26,03,16,6.80
2017,03,26,03,17,6.80
2017,03,26,03,18,6.80
2017,03,26,03,19,6.80
2017,03,26,03,20,6.80
2017,03,26,03,21,6.80
2017,03,26,03,22,6.80
2017,03,26,03,23,6.80
2017,03,26,03,24,6.80
2017,03,26,03,25,6.80
2017,03,26,03,26,6.80
2017,03,26,03,27,6.80
2017,03,26,03,28,6.80
2017,03,26,03,29,6.70
2017,03,26,03,30,6.70
2017,03,26,03,31,6.70
2017,03,26,03,32,6.70
2017,03,26,03,33,6.70
2017,03,26,03,34,6.70
2017,03,26,03,35,6.70
2017,03,26,03,36,6.70
2017,03,26,03,37,6.70
2017,03,26,03,38,6.70
2017,03,26,03,39,6.70
2017,03,26,03,40,6.70
2017,03,26,03,41,6.70
2017,03,26,03,42,6.60
2017,03,26,03,43,6.60
2017,03,26,03,44,6.60
2017,03,26,03,45,6.60
2017,03,26,03,46,6.60
2017,03,26,03,47,6.60
2017,03,26,03,48,6.60
2017,03,26,03,49,6.60
2017,03,26,03,50,6.60
2017,03,26,03,51,6.60
2017,03,26,03,52,6.60
2017,03,26,03,53,6.60
2017,03,26,03,54,6.60
2017,03,26,03,55,6.60
2017,03,26,03,56,6.60
2017,03,26,03,57,6.60
2017,03,26,03,58,6.50
2017,03,26,03,59,6.50
2017,03,26,04,00,6.50
2017,03,26,04,01,6.50
2017,03,26,04,02,6.40
2017,03,26,04,03,6.40
2017,03,26,04,04,6.40
2017,03,26,04,05,6.40
2017,03,26,04,06,6.40
2017,03,26,04,07,6.30
2017,03,26,04,08,6.30
2017,03,26,04,09,6.30
2017,03,26,04,10,6.30
2017,03,26,04,11,6.20
2017,03,26,04,12,6.20
2017,03,26,04,13,6.20
2017,03,26,04,14,6.20
2017,03,26,04,15,6.20
2017,03,26,04,16,6.20
2017,03,26,04,17,6.20
2017,03,26,04,18,6.20
2017,03,26,04,19,6.20
2017,03,26,04,20,6.10
2017,03,26,04,21,6.10
2017,03,26,04,22,6.10
2017,03,26,04,23,6.10
2017,03,26,04,24,6.00
2017,03,26,04,25,6.00
2017,03,26,04,26,6.00
2017,03,26,04,27,5.90
2017,03,26,04,28,5.90
2017,03,26,04,29,5.80
2017,03,26,04,30,5.80
2017,03,26,04,31,5.80
2017,03,26,04,32,5.80
2017,03,26,04,33,5.70
2017,03,26,04,34,5.70
2017,03,26,04,35,5.70
2017,03,26,04,36,5.70
2017,03,26,04,37,5.60
2017,03,26,04,38,5.60
2017,03,26,04,39,5.60
2017,03,26,04,40,5.50
2017,03,26,04,41,5.50
2017,03,26,04,42,5.50
2017,03,26,04,43,5.50
2017,03,26,04,44,5.40
2017,03,26,04,45,5.40
2017,03,26,04,46,5.40
2017,03,26,04,47,5.40
2017,03,26,04,48,5.40
2017,03,26,04,49,5.40
2017,03,26,04,50,5.40
2017,03,26,04,51,5.40
2017,03,26,04,52,5.40
2017,03,26,04,53,5.40
2017,03,26,04,54,5.40
2017,03,26,04,55,5.40
2017,03,26,04,56,5.40
2017,03,26,04,57,5.40
2017,03,26,04,58,5.40
2017,03,26,04,59,5.40
2017,03,26,05,00,5.40
2017,03,26,05,01,5.40
2017,03,26,05,02,5.40
2017,03,26,19,46,7.10
2017,03,26,19,47,7.10
2017,03,26,19,48,7.10
2017,03,26,19,49,7.10
2017,03,26,19,50,7.10
2017,03,26,19,51,7.10
2017,03,26,19,52,7.10
2017,03,26,19,53,7.10
2017,03,26,19,54,7.10
2017,03,26,19,55,7.10
2017,03,26,19,56,7.10
2017,03,26,19,57,7.10
2017,03,26,19,58,7.10
2017,03,26,19,59,7.10
2017,03,26,20,00,7.10
2017,03,26,20,01,7.10
2017,03,26,20,02,7.10
2017,03,26,20,03,7.10
2017,03,26,20,04,7.10
2017,03,26,20,05,7.10
2017,03,26,20,06,7.10
2017,03,26,20,07,7.10
2017,03,26,20,08,7.10
2017,03,26,20,09,7.10
2017,03,26,20,10,7.10
2017,03,26,20,11,7.10
2017,03,26,20,12,7.10
2017,03,26,20,13,7.10
2017,03,26,20,14,7.10
2017,03,26,20,15,7.10
2017,03,26,20,16,7.00
2017,03,26,20,17,7.00
2017,03,26,20,18,7.00
2017,03,26,20,19,7.00
2017,03,26,20,20,7.00
2017,03,26,20,21,7.00
2017,03,26,20,22,7.10
2017,03,26,20,23,7.10
2017,03,26,20,24,7.00
2017,03,26,20,25,7.00
2017,03,26,20,26,7.00
2017,03,26,20,27,7.00
2017,03,26,20,28,7.00
2017,03,26,20,29,7.00
2017,03,26,20,30,7.00
2017,03,26,20,31,7.00
2017,03,26,20,32,7.10
2017,03,26,20,33,7.00
2017,03,26,20,34,7.00
2017,03,26,20,35,7.00
2017,03,26,20,36,7.10
2017,03,26,20,37,7.00
2017,03,26,20,38,7.10
2017,03,26,20,39,7.10
2017,03,26,20,40,7.10
2017,03,26,20,41,7.10
2017,03,26,20,42,7.10
2017,03,26,20,43,7.10
2017,03,26,20,44,7.10
2017,03,26,20,45,7.10
2017,03,26,20,46,7.10
2017,03,26,20,47,7.10
2017,03,26,20,48,7.10
2017,03,26,20,49,7.10
2017,03,26,20,50,7.10
2017,03,26,20,51,7.10
2017,03,26,20,52,7.10
2017,03,26,20,53,7.10
2017,03,26,20,54,7.10
2017,03,26,20,55,7.10
2017,03,26,20,56,7.10
2017,03,26,20,57,7.10
2017,03,26,20,58,7.10
2017,03,26,20,59,7.10
2017,03,26,21,00,7.10
2017,03,26,21,01,7.10
2017,03,26,21,02,7.10
2017,03,26,21,03,7.10
2017,03,26,21,04,7.10
2017,03,26,21,05,7.10
2017,03,26,21,06,7.10
2017,03,26,21,07,7.10
2017,03,26,21,08,7.10
2017,03,26,21,09,7.00
2017,03,26,21,10,7.00
2017,03,26,21,11,7.00
2017,03,26,21,12,7.00
2017,03,26,21,13,7.00
2017,03,26,21,14,7.00
2017,03,26,21,15,7.00
2017,03,26,21,16,7.00
2017,03,26,21,17,7.00
2017,03,26,21,18,6.90
2017,03,26,21,19,7.00
2017,03,26,21,20,7.00
2017,03,26,21,21,7.00
2017,03,26,21,22,7.00
2017,03,26,21,23,7.00
2017,03,26,21,24,7.00
2017,03,26,21,25,7.00
2017,03,26,21,26,7.00
2017,03,26,21,27,7.00
2017,03,26,21,28,7.00
2017,03,26,21,29,7.00
2017,03,26,21,30,7.10
2017,03,26,21,31,7.10
2017,03,26,21,32,7.10
2017,03,26,21,33,7.10
2017,03,26,21,34,7.10
2017,03,26,21,35,7.10
2017,03,26,21,36,7.10
2017,03,26,21,37,7.10
2017,03,26,21,38,7.10
2017,03,26,21,39,7.10
2017,03,26,21,40,7.10
2017,03,26,21,41,7.10
2017,03,26,21,42,7.10
2017,03,26,21,43,7.10
2017,03,26,21,44,7.10
2017,03,26,21,45,7.10
2017,03,26,21,46,7.10
2017,03,26,21,47,7.10
2017,03,26,21,48,7.10
2017,03,26,21,49,7.10
2017,03,26,21,50,7.10
2017,03,26,21,51,7.10
2017,03,26,21,52,7.10
2017,03,26,21,53,7.10
2017,03,26,21,54,7.10
2017,03,26,21,55,7.10
2017,03,26,21,56,7.10
2017,03,26,21,57,7.10
2017,03,26,21,58,7.10
2017,03,26,21,59,7.10
2017,03,26,22,00,7.10
2017,03,26,22,01,7.10
2017,03,26,22,02,7.10
2017,03,26,22,03,7.10
2017,03,26,22,04,7.10
2017,03,26,22,05,7.10
2017,03,26,22,06,7.10
2017,03,26,22,07,7.00
2017,03,26,22,08,7.00
2017,03,26,22,09,7.00
2017,03,26,22,10,7.00
2017,03,26,22,11,7.00
2017,03,26,22,12,7.00
2017,03,26,22,13,7.00
2017,03,26,22,14,7.00
2017,03,26,22,15,7.00
2017,03,26,22,16,7.00
2017,03,26,22,17,7.00
2017,03,26,22,18,7.00
2017,03,26,22,19,7.10
2017,03,26,22,20,7.10
2017,03,26,22,21,7.10
2017,03,26,22,22,7.10
2017,03,26,22,23,7.10
2017,03,26,22,24,7.10
2017,03,26,22,25,7.10
2017,03,26,22,26,7.10
2017,03,26,22,27,7.10
2017,03,26,22,28,7.10
2017,03,26,22,29,7.10
2017,03,26,22,30,7.10
2017,03,26,22,31,7.10
2017,03,26,22,32,7.10
2017,03,26,22,33,7.10
2017,03,26,22,34,7.10
2017,03,26,22,35,7.10
2017,03,26,22,36,7.10
2017,03,26,22,37,7.10
2017,03,26,22,38,7.10
2017,03,26,22,39,7.10
2017,03,26,22,40,7.10
2017,03,26,22,41,7.10
2017,03,26,22,42,7.10
2017,03,26,22,43,7.10
2017,03,26,22,44,7.10
2017,03,26,22,45,7.10
2017,03,26,22,46,7.10
2017,03,26,22,47,7.10
2017,03,26,22,48,7.20
2017,03,26,22,49,7.20
2017,03,26,22,50,7.20
2017,03,26,22,51,7.20
2017,03,26,22,52,7.20
2017,03,26,22,53,7.20
2017,03,26,22,54,7.20
2017,03,26,22,55,7.20
2017,03,26,22,56,7.20
2017,03,26,22,57,7.20
2017,03,26,22,58,7.20
2017,03,26,22,59,7.20
2017,03,26,23,00,7.20
2017,03,26,23,01,7.20
2017,03,26,23,02,7.20
2017,03,26,23,03,7.20
2017,03,26,23,04,7.20
2017,03,26,23,05,7.20
2017,03,26,23,06,7.20
2017,03,26,23,07,7.20
2017,03,26,23,08,7.20
2017,03,26,23,09,7.20
2017,03,26,23,10,7.20
2017,03,26,23,11,7.20
2017,03,26,23,12,7.20
2017,03,26,23,13,7.20
2017,03,26,23,14,7.20
2017,03,26,23,15,7.20
2017,03,26,23,16,7.20
2017,03,26,23,17,7.20
2017,03,26,23,18,7.20
2017,03,26,23,19,7.20
2017,03,26,23,20,7.20
2017,03,26,23,21,7.20
2017,03,26,23,22,7.20
2017,03,26,23,23,7.20
2017,03,26,23,24,7.20
2017,03,26,23,25,7.10
2017,03,26,23,26,7.10
2017,03,26,23,27,7.10
2017,03,26,23,28,7.10
2017,03,26,23,29,7.10
2017,03,26,23,30,7.10
2017,03,26,23,31,7.10
2017,03,26,23,32,7.10
2017,03,26,23,33,7.10
2017,03,26,23,34,7.10
2017,03,26,23,35,7.10
2017,03,26,23,36,7.10
2017,03,26,23,37,7.10
2017,03,26,23,38,7.10
2017,03,26,23,39,7.10
2017,03,26,23,40,7.10
2017,03,26,23,41,7.10
2017,03,26,23,42,7.10
2017,03,26,23,43,7.10
2017,03,26,23,44,7.10
2017,03,26,23,45,7.10
2017,03,26,23,46,7.10
2017,03,26,23,47,7.20
2017,03,26,23,48,7.10
2017,03,26,23,49,7.20
2017,03,26,23,50,7.20
2017,03,26,23,51,7.20
2017,03,26,23,52,7.20
2017,03,26,23,53,7.20
2017,03,26,23,54,7.20
2017,03,26,23,55,7.20
2017,03,26,23,56,7.20
2017,03,26,23,57,7.20
2017,03,26,23,58,7.20
2017,03,26,23,59,7.30
